Weather Roundup
Issued by NWS Springfield, MO

Home | Current Version | Previous Version | Text Only | Print | Product List | Glossary On
Versions: 1 2 3 4 5 6 7 8 9 10 11 12 13 14 15 16 17 18 19 20 21 22 23 24 25 26 27 28 29 30 31 32 33 34 35 36 37 38 39 40 41 42 43 44 45 46 47 48 49 50
000
NZUS99 KSGF 280707
HRRSGF

HOURLY WEATHER
NATIONAL WEATHER SERVICE SPRINGFIELD MO
100 AM CST FRI NOV 28 2014

......SGF CWA......

CITY           SKY/WX    TMP DP  RH WIND       PRES   REMARKS
SPRINGFIELD    CLEAR     34  22  61 S14       30.27F WCI  25
JOPLIN         CLEAR     34  23  64 S8        30.26F WCI  27
WEST PLAINS    CLEAR     29  20  69 S5        30.34F WCI  24
ROLLA            N/A     29  21  72 SE10      30.29F WCI  20
OSAGE BEACH    CLEAR     28  21  74 SE5       30.30F WCI  23
BRANSON        CLEAR     30  23  74 SE3       30.31F

......SURROUNDING SGF CWA......

CITY           SKY/WX    TMP DP  RH WIND       PRES   REMARKS
CHANUTE        CLEAR     31  24  75 SE8       30.22F WCI  23
PARSONS        CLEAR     36  26  67 S6        30.23F WCI  31
COFFEYVILLE    CLEAR     33  26  75 S8        30.23F WCI  26
EMPORIA        CLEAR     30  23  75 SE12      30.15F WCI  20
GROVE OK       CLEAR     36  28  75 S3        30.28F
ROGERS AR      CLEAR     35  25  66 S9        30.28F WCI  28
SILOAM SPRINGS CLEAR     36  21  55 S7        30.29F WCI  30
HARRISON AR    CLEAR     32  25  75 SE8       30.30F WCI  25
NEAR YELLVILLE PTCLDY    30  21  69 SE5       30.35F WCI  25

......KANSAS AND MISSOURI......

CITY           SKY/WX    TMP DP  RH WIND       PRES   REMARKS
KANSAS CTY INT CLEAR     31  23  72 SE13      30.19F WCI  21
DOWNTOWN KC    CLEAR     33  22  63 S6        30.22F WCI  28
COLUMBIA       PTCLDY    29  24  82 SE9       30.31F WCI  20
SEDALIA        FAIR      29  24  82 SE9       30.28F WCI  20
ST JOSEPH      CLEAR     30  23  75 S14       30.18F WCI  19
ST LOUIS       CLOUDY    26  19  74 SE9       30.40F WCI  17
SPIRIT OF STL  CLOUDY    27  19  72 E7        30.38F WCI  19
KIRKSVILLE     MOCLDY    20  15  81 E9        30.30F WCI   9
WICHITA        PTCLDY    38  23  55 S16       30.12F WCI  29
TOPEKA         CLEAR     31  23  72 SE8       30.16F WCI  23
OLATHE         CLEAR     30  22  72 S10       30.20F WCI  21

......TENNESSEE......

CITY           SKY/WX    TMP DP  RH WIND       PRES   REMARKS
MEMPHIS        PTCLDY    32  26  78 S7        30.44F WCI  26
NASHVILLE      CLEAR     27  21  78 CALM      30.45F

......ARKANSAS.......

CITY           SKY/WX    TMP DP  RH WIND       PRES   REMARKS
FAYETTEVILLE   CLEAR     37  26  64 S3        30.30F
FT SMITH       CLEAR     33  28  81 NE6       30.34F WCI  28
LITTLE ROCK    CLEAR     36  29  75 S8        30.41F WCI  30

......OKLAHOMA.......

CITY           SKY/WX    TMP DP  RH WIND       PRES   REMARKS
TULSA          CLEAR     40  25  55 S12       30.24F WCI  33
PONCA CITY     CLEAR     41  22  46 S10       30.18F
MCALESTER      PTCLDY    43  27  53 S8        30.30F
OKLAHOMA CITY  MOCLDY    43  25  49 S14       30.21F

......IOWA............

CITY           SKY/WX    TMP DP  RH WIND       PRES   REMARKS
DES MOINES     CLOUDY    15   7  70 SE12      30.22F WCI   2
QUAD CITIES    CLOUDY    14   7  73 SE5       30.36F WCI   6

......ILLINOIS........

CITY           SKY/WX    TMP DP  RH WIND       PRES   REMARKS
QUINCY         MOCLDY    19  11  70 SE10      30.34F WCI   7
CHICAGO        MOCLDY    18  10  71 CALM      30.35F



USA.gov is the U.S. government's official web portal to all federal, state and local government web resources and services.